OBJECT Q, 43772

Orbit data source: Space-Track

You're viewing an Uncataloged Satellite

Recently launched and/or uncataloged satellites may have evolving metadata. Metadata may include but not limited to: Owner, Maufacturer, Bus, Motor, and Mission.

OBJECT Q, 43772 is a satellite in SSO that was launched on Mon, 03 Dec 2018 UTC via an FALCON 9 launch vehicle from the Air Force Western Test Range (AFWTR). Unknown objects in Earth's orbit typically refer to objects detected orbiting the Earth but have not yet been identified or cataloged. These objects could be anything from previously untracked satellites, spent rocket stages, debris from satellite collisions, or even natural meteoroids temporarily captured by Earth's gravity.

Loading next visibility...
Identifier
43772, 2018-099Q
Orbit
SSO
Country
Flag of TBDTBD
Related business
Manufacturer
GaTech
Mission
Non-operational Amateur Technology
Bus & Motor
CUBESAT 1.5U, Unknown motor
Mass
2 kg wet, 2 kg dry
Launch date (UTC)
2018-12-03 (8 years ago)
Launch vehicle
FALCON 9
Launch site
Air Force Western Test Range (AFWTR)
Object type
Unknown
Shape & HBR
Box + 2 Pan, 0.1 m
Radar Cross Section
0.025 m², Medium (>0.1 m² and < 1m²)

Expand to show TLE details & history
Last TLE update: 2 days ago

TLE from 2 days ago
0 OBJECT Q
1 43772U 18099Q   26171.17418111  .00578791  14221-3  14131-2 0  9993
2 43772  97.4097 253.0117 0011276 252.3209 107.6836 15.96079396415141
Epoch: 2026-06-20T04:10Z
TLE epoch observation values (Epoch: 2026-06-20T04:10:49.247Z)
Latitude
-0.00008°
Longitude
-78.08608°
Altitude
290.792 km
Speed
7.732 km/s
True Right ascension
16h 52m 02s
True Declination
0° 00' 00"
Sunlit
Object was in full shadow at epoch
Visualization orbit readout
Latitude
Unknown
Longitude
Unknown
Altitude
Unknown
Speed
Unknown
Apparent Right ascension
Unknown
Apparent Declination
Unknown
Sunlit
N/A
Visualization observer readout
Local Sidereal Time
21:36:45
Azimuth
Unknown
Elevation
Unknown
Doppler factor
Unknown
Orbital elements
Apogee altitude
289.684 km
Perigee altitude
274.664 km
Semi-major axis
6,660.311 km
Eccentricity
0.00113
Inclination
97.4097°
RAAN
253.0117°
Arg. of periapsis
252.3209°
True anomaly
107.80666°
Mean anomaly
107.6836°
Eccentric anomaly
107.74513°
Mean motion
3.99302 °/min
Orbital period
90.16 mins
BSTAR
0.0014131
Loading maneuver chart data...
Computing Atmospheric mass density...
Loading historical data...
Loading historical data...
Loading historical data...
Loading historical data...
Loading historical data...
Loading historical data...
Loading historical data...

Documentation

Showing up to 5 results
|